Tracking 25378 objects as of 22-Jan-2022
HD Live streaming from Space Station
objects crossing your sky now

THOR ABLESTAR DEB

Track THOR ABLESTAR DEB now!
10-day predictions


NORAD ID: 318
Int'l Code: 1961-015CU
Perigee: 568.2 km
Apogee: 661.4 km
Inclination: 66.5 °
Period: 96.8 minutes
Semi major axis: 6985 km
RCS: 0.0477 m2 (small)
Launch date: June 29, 1961
Source: United States (US)
Launch site: AIR FORCE EASTERN TEST RANGE (AFETR)

Note: This is SATELLITE DEBRIS
aabbcc
Your satellite tracking list
Your tracking list is empty




NASA's NSSDC Master Catalog

Two Line Element Set (TLE):
1 00318U 61015CU  22022.58452180  .00001899  00000-0  21826-3 0  9995
2 00318  66.5352 221.0419 0066658 166.2789 194.0169 14.86887224173001
Source of the keplerian elements: AFSPC